Theta_e
330 328 330 328 327 330 330 326 326 329 334 335 327 327 337 331 324 331 332 331 338 340 344 353 347 345 347 341 341 340 339 341 341 341 342 343 346 348 348 349 348 350 350 349 349 348 348 349 348 349 350 349 348 344 342 339 332 328 328 327 324 324 323
329 327 328 329 328 335 332 322 326 333 329 335 340 331 330 327 324 332 334 326 328 331 336 350 353 348 347 345 344 340 339 340 339 341 342 342 346 347 347 349 348 349 349 348 349 348 348 348 346 348 348 348 348 344 340 337 332 329 329 328 325 323 322
329 329 326 327 327 329 330 326 329 332 322 325 334 327 324 326 325 329 333 330 330 333 338 349 349 348 348 346 345 343 341 339 339 341 342 341 345 347 347 349 348 348 349 349 349 348 348 347 347 347 347 349 349 346 342 337 333 329 329 329 326 324 322
328 329 325 323 324 326 329 330 329 331 328 325 326 325 326 326 326 328 330 329 333 344 357 354 345 348 348 344 345 344 340 340 339 340 342 342 343 346 347 348 348 348 348 348 348 347 347 347 347 349 348 349 349 347 344 340 334 330 329 330 328 325 322
325 325 326 324 326 326 325 326 325 325 327 328 326 328 330 327 329 332 328 328 341 360 365 354 344 344 345 342 345 345 340 340 341 340 342 342 343 345 346 347 347 347 347 348 348 347 347 348 349 350 350 350 349 348 346 343 338 331 329 330 329 326 323
321 324 330 328 327 329 326 327 328 324 326 328 322 324 328 328 332 334 328 328 343 360 354 348 345 343 343 343 342 343 340 339 341 341 342 343 343 344 345 346 347 347 347 348 348 349 349 350 351 351 350 351 350 349 347 346 341 333 330 330 330 327 324
326 326 330 328 326 330 328 328 329 328 333 330 321 323 330 329 328 333 335 331 341 361 355 343 345 343 339 340 340 339 340 341 342 343 341 343 343 343 345 345 346 347 347 347 348 349 350 350 350 350 351 352 351 349 348 348 344 337 331 330 331 330 324
331 328 329 328 329 328 326 329 329 327 332 331 332 342 341 332 324 329 337 332 337 366 363 340 338 339 334 336 339 339 340 342 343 343 343 343 343 343 344 344 346 347 346 348 349 350 351 350 351 352 352 352 351 351 351 348 346 340 333 331 332 331 326
323 325 326 323 327 328 327 333 331 326 333 332 336 346 338 329 328 330 333 329 335 361 360 337 335 338 335 336 337 340 342 342 343 344 342 343 342 343 345 345 347 347 347 349 349 350 351 351 353 353 352 353 352 352 351 350 348 344 337 333 333 332 328
321 322 325 324 327 330 329 332 330 328 332 326 330 336 326 324 333 336 332 331 339 353 348 336 338 339 338 338 335 338 343 341 344 344 342 344 343 344 346 345 347 348 347 349 349 350 351 351 352 353 353 353 353 353 352 351 350 347 341 336 334 334 330
325 330 343 346 336 328 324 327 327 329 329 328 335 336 328 332 338 336 338 338 335 341 342 340 341 338 340 342 336 336 339 340 344 344 342 345 344 344 346 345 347 348 348 349 350 350 350 351 352 353 353 353 354 353 353 352 352 349 345 339 335 336 332
326 336 355 356 336 324 324 326 327 328 329 331 333 330 333 345 337 328 341 347 334 335 342 341 339 339 341 342 336 335 337 339 341 341 341 342 342 342 344 345 347 348 348 349 350 350 351 351 352 353 353 353 354 354 353 353 352 350 347 342 337 337 333
328 331 338 341 332 327 328 328 327 328 329 329 330 333 343 347 332 327 341 346 336 335 340 338 336 337 338 337 335 336 337 338 338 337 337 339 340 341 343 345 347 347 348 349 349 350 351 352 353 354 354 355 355 355 354 353 352 350 348 344 339 338 334
331 330 330 333 331 327 327 327 330 330 330 329 328 335 344 342 337 340 344 342 339 337 336 335 334 333 334 334 335 335 336 336 337 338 338 338 339 342 342 345 345 346 348 348 348 350 351 352 354 355 356 356 356 356 355 354 352 350 349 345 342 339 334
328 329 331 331 328 329 327 327 332 332 330 332 329 331 338 337 338 344 342 339 342 339 336 335 332 332 335 335 334 335 336 336 337 338 338 337 339 342 342 344 345 345 346 347 347 349 350 351 353 354 355 356 355 356 355 353 352 350 349 347 344 340 336
324 328 330 329 328 330 325 325 333 332 329 333 332 332 336 336 341 347 340 336 341 341 341 338 334 334 337 335 334 335 335 336 337 338 340 340 341 342 343 344 346 346 346 347 348 348 348 350 351 352 353 355 355 354 353 352 351 350 348 347 345 341 338
324 329 331 333 333 325 322 330 335 331 335 337 334 338 340 340 353 355 340 336 342 344 343 343 342 341 338 335 334 335 336 337 337 338 339 340 341 342 343 344 345 346 347 348 347 347 347 348 350 350 351 352 353 353 353 352 351 349 348 347 344 341 340
325 331 335 334 331 323 326 342 340 330 336 338 336 339 340 342 355 358 347 346 351 346 343 346 345 341 339 337 335 337 338 337 337 338 338 339 340 342 344 345 347 347 348 349 349 349 349 348 349 350 350 351 352 352 352 352 350 348 347 345 344 341 340
331 338 337 323 323 331 342 350 341 332 336 339 339 341 340 339 344 348 348 347 349 346 341 340 340 337 337 338 337 338 338 335 337 338 338 339 340 341 344 346 347 350 351 352 352 351 350 350 351 351 351 351 351 351 351 351 349 347 344 343 343 341 340
330 337 336 324 328 344 352 346 339 337 340 344 343 339 339 344 344 342 343 340 341 341 335 333 335 336 336 337 336 336 336 334 334 335 334 336 336 336 337 338 341 345 348 350 351 351 351 351 352 352 352 351 351 350 350 349 348 346 344 343 342 340 339
334 336 335 337 339 339 340 342 339 337 338 344 345 337 336 344 345 341 340 340 341 339 333 333 335 334 336 339 337 334 335 334 334 333 333 333 334 334 333 334 334 337 339 341 345 347 349 351 353 353 352 352 351 350 349 347 346 344 343 342 341 339 337
342 341 336 339 334 329 336 343 339 334 334 340 352 348 341 341 339 336 340 343 343 341 336 333 333 334 341 345 340 336 335 335 334 334 334 333 333 333 333 334 335 335 336 338 341 344 348 352 354 354 352 351 350 348 347 345 343 342 342 341 341 338 338
345 346 337 333 327 329 342 346 340 334 331 335 347 345 339 341 336 333 338 340 339 338 334 331 334 338 344 345 340 336 335 334 334 334 335 335 334 335 335 335 336 337 339 341 342 345 349 352 354 354 353 352 350 347 345 342 339 340 340 341 340 341 342
347 346 337 332 331 336 342 340 337 333 331 337 341 332 334 342 336 332 336 336 335 334 331 331 336 340 343 342 337 334 334 334 334 335 336 336 335 336 336 337 337 339 340 340 342 347 350 351 354 353 351 349 347 344 343 340 338 338 339 340 340 342 342
348 344 335 332 335 341 341 336 335 332 334 349 345 334 338 342 334 333 335 333 333 334 331 333 337 337 337 337 334 333 333 333 333 335 336 336 336 337 337 338 339 340 339 342 346 350 352 353 353 351 345 341 340 338 336 335 337 339 341 342 343 343 342
346 348 344 337 335 338 337 335 336 334 338 345 340 336 339 338 333 336 336 334 335 336 334 336 337 336 335 335 334 332 331 331 334 336 337 337 338 340 341 342 342 340 339 343 349 352 353 353 353 353 347 342 341 339 335 335 340 343 344 344 345 344 341
347 353 350 340 336 337 335 337 343 344 343 342 337 335 336 335 334 335 334 334 335 333 333 336 336 335 336 336 335 333 332 334 338 338 339 339 340 342 343 343 343 340 339 346 353 356 357 355 354 352 348 344 343 344 341 339 341 345 346 346 345 342 338
351 352 346 337 335 335 334 337 342 342 340 339 336 334 335 334 334 335 334 334 333 331 332 333 332 333 334 334 335 334 334 336 340 341 341 341 340 340 340 341 342 342 344 350 356 358 358 357 354 351 347 345 344 345 343 338 339 346 347 343 341 338 337
345 346 342 338 336 333 331 334 335 334 335 335 335 335 335 335 334 334 334 334 333 333 332 331 332 334 333 333 333 333 334 336 339 341 342 342 343 344 344 345 345 344 346 349 353 355 357 357 354 349 346 346 345 343 341 337 339 344 344 340 339 341 340
338 336 335 336 334 331 331 332 331 331 332 331 332 332 333 333 335 335 334 333 334 335 332 332 335 335 334 335 334 334 336 338 338 340 342 343 346 347 345 344 342 342 346 348 350 354 354 352 350 347 345 346 343 338 339 339 341 343 341 339 338 336 333
338 337 338 338 335 332 332 331 331 331 331 330 331 331 330 330 332 334 336 337 336 335 335 334 335 335 333 333 333 335 336 337 337 339 341 341 343 343 341 339 339 341 345 348 351 352 350 346 346 345 343 342 339 337 339 341 342 340 336 332 329 327 325
344 343 341 338 333 330 331 331 331 331 331 330 331 331 331 331 329 329 333 336 336 335 335 335 334 334 332 331 332 333 335 336 338 338 338 339 341 341 340 341 343 347 349 350 351 350 346 344 343 342 342 342 341 340 339 337 337 335 329 324 324 325 326
344 343 339 336 333 332 331 331 331 332 330 331 331 330 331 332 331 328 329 334 337 337 336 335 334 332 332 331 331 331 332 335 338 339 339 340 341 342 343 346 349 351 351 350 348 344 342 342 342 341 343 343 340 338 336 332 329 327 324 322 323 325 327
345 345 341 338 338 337 334 330 331 331 330 330 330 329 329 329 330 328 326 329 335 337 337 337 335 333 333 333 332 331 332 334 338 340 340 340 341 343 347 349 348 347 346 345 343 341 340 341 340 339 339 338 335 332 330 326 322 321 322 322 323 324 326
343 343 338 333 334 336 332 330 330 329 328 328 327 326 327 327 326 326 325 325 328 330 331 333 331 331 333 334 333 333 332 333 335 338 339 340 341 342 344 345 343 342 343 342 340 338 338 339 337 335 334 335 334 329 324 321 321 322 323 323 322 324 324
333 334 333 329 329 331 328 327 326 325 325 326 326 325 326 325 324 325 325 324 324 324 325 326 325 326 332 335 335 335 333 333 334 335 336 338 339 341 341 341 340 340 341 340 337 337 338 338 335 331 330 331 329 324 321 322 324 324 323 322 321 321 320
325 325 327 326 326 326 325 324 324 323 324 324 324 324 324 323 323 323 323 323 323 323 324 324 324 325 329 333 336 336 335 334 333 332 334 336 338 339 339 338 338 338 339 338 337 338 338 334 329 325 325 326 324 322 323 324 324 324 323 321 319 319 318
Wind_Speed
12 12 10 10 9 6 3 3 5 4 6 8 4 3 2 3 3 4 2 3 4 2 4 5 4 7 10 15 18 23 29 33 34 34 36 38 40 44 46 47 47 47 48 47 46 45 45 44 42 41 39 36 33 31 31 33 32 29 27 24 23 22 20
13 17 13 9 10 9 4 5 7 3 2 4 4 2 2 3 2 4 3 4 3 1 3 4 5 9 10 13 17 20 24 28 30 33 36 40 43 46 48 48 47 47 48 48 47 47 47 45 44 42 39 37 34 31 31 33 34 32 29 25 23 22 20
10 11 8 6 7 8 6 5 6 5 3 1 1 3 2 1 2 4 4 4 3 4 4 3 6 11 13 15 16 17 18 22 27 32 35 39 41 43 45 45 45 46 48 49 49 48 47 46 45 42 40 38 35 32 32 33 33 32 29 26 24 22 20
6 6 5 6 6 3 2 3 3 2 4 5 3 3 5 4 3 3 4 5 3 5 5 7 11 14 14 15 14 13 15 22 28 32 33 36 38 41 44 44 45 47 48 49 49 49 48 48 47 45 42 39 37 34 33 34 34 33 31 28 26 23 21
4 5 5 8 9 5 2 3 4 2 0 2 2 1 3 5 4 3 3 4 5 5 4 7 11 10 9 12 12 10 16 24 29 32 34 36 39 42 44 45 46 46 48 49 49 49 48 48 47 47 44 41 38 36 35 35 35 35 33 30 27 24 21
5 6 7 10 13 11 8 6 6 6 4 3 3 2 2 3 4 5 5 4 6 6 4 6 9 7 7 13 14 11 17 26 29 32 36 39 41 42 43 45 46 46 47 48 49 49 48 48 48 48 46 43 40 38 37 36 36 36 35 32 29 25 22
7 9 11 12 14 12 9 6 7 7 5 5 6 4 4 1 1 2 4 2 5 6 4 6 8 8 12 19 21 17 20 28 31 33 39 42 42 42 43 45 46 46 48 48 48 48 48 49 49 48 46 44 42 40 39 37 37 37 36 34 30 26 23
6 9 10 11 11 9 6 4 5 6 5 5 6 5 4 3 3 2 4 1 4 7 3 5 9 10 13 19 24 23 23 28 32 35 38 39 39 39 40 43 44 45 46 47 47 48 48 48 48 47 47 45 43 42 40 39 37 36 36 35 32 28 25
6 6 5 7 8 6 4 4 6 7 7 7 4 2 3 3 4 5 6 2 6 5 3 2 8 12 12 15 25 29 27 28 32 34 36 37 36 37 38 40 41 41 43 45 47 48 49 48 48 48 46 45 45 44 42 40 38 36 36 36 34 30 26
6 5 5 7 6 4 3 3 8 10 10 9 5 3 4 4 3 5 7 5 6 5 1 3 6 12 12 13 22 28 29 31 33 34 35 36 35 36 36 37 39 40 42 45 47 48 48 49 48 48 47 46 45 44 43 41 39 37 36 37 35 32 28
8 8 8 7 6 7 6 6 9 9 10 9 7 5 4 6 5 4 5 7 6 5 6 7 8 10 11 11 16 22 27 32 35 36 36 35 34 34 34 35 37 40 42 44 46 47 48 48 48 47 47 46 46 45 43 42 40 38 37 37 36 33 30
14 13 10 7 8 12 11 9 9 10 9 9 9 6 5 6 7 4 8 8 12 11 11 11 11 11 11 10 15 23 29 33 35 36 34 33 31 30 32 34 36 38 40 43 45 46 47 47 47 47 47 46 46 44 43 42 40 39 38 38 37 34 32
16 16 13 8 8 12 13 13 12 11 10 9 9 8 8 9 7 7 9 13 15 14 14 15 15 15 15 17 23 29 33 33 34 33 32 32 31 31 33 35 36 37 39 42 43 45 46 46 47 47 46 46 45 44 43 41 40 39 37 37 36 34 32
14 15 14 9 8 8 11 12 9 7 7 8 9 8 9 12 9 8 14 17 16 15 16 18 17 17 20 23 26 29 31 31 31 31 32 31 31 32 33 34 36 37 38 39 41 44 46 46 47 46 46 46 45 44 43 41 39 38 36 35 34 33 32
11 13 12 9 8 8 8 7 5 5 4 4 4 5 6 7 5 5 14 16 11 9 9 11 12 15 19 20 21 24 28 30 31 31 32 31 31 32 32 33 34 35 36 38 40 42 44 46 46 47 46 46 45 44 43 42 40 38 35 33 32 32 32
7 8 7 7 7 7 7 5 4 5 4 1 2 2 4 5 3 4 10 11 9 8 5 7 8 12 15 15 18 22 26 30 32 32 31 32 32 31 31 32 34 35 36 37 39 40 42 44 46 47 46 46 45 44 44 42 40 38 36 34 32 32 30
5 5 7 8 5 5 2 5 4 4 6 5 4 3 2 2 5 8 7 9 7 5 7 9 7 8 11 13 18 23 24 26 29 30 29 29 29 29 30 31 31 33 34 36 36 36 37 40 43 45 45 45 45 45 44 42 40 38 37 36 34 32 30
5 5 5 6 4 4 3 6 2 4 8 10 8 4 2 1 2 6 6 6 5 6 8 9 7 8 12 17 21 25 24 23 22 21 21 22 24 26 28 29 30 31 32 33 33 33 34 36 39 41 43 45 44 44 43 42 40 39 38 37 36 33 31
4 2 5 5 4 4 5 6 2 6 10 12 10 6 4 5 5 7 8 8 10 10 11 13 12 10 14 19 21 22 22 21 19 18 17 17 17 18 20 23 25 28 29 30 32 32 32 34 37 40 43 43 43 43 43 43 42 40 39 38 37 36 34
2 2 5 4 6 5 5 3 2 6 7 8 9 7 8 9 5 6 8 7 9 13 18 22 22 19 17 17 17 18 17 14 14 13 13 13 13 12 12 13 15 18 22 25 27 28 30 34 37 40 40 41 41 42 42 43 43 42 40 38 38 37 35
2 4 3 1 1 4 6 5 3 1 2 5 7 6 5 8 8 4 7 9 7 10 17 24 26 24 17 11 9 14 14 9 8 8 9 11 11 10 10 9 9 10 13 18 21 24 27 32 36 38 39 39 41 41 42 42 43 42 41 38 38 37 34
1 4 4 3 4 3 3 6 7 4 3 10 11 6 3 6 11 9 4 11 10 8 12 19 23 20 12 4 5 11 11 7 6 9 11 11 10 8 8 8 9 10 11 13 17 22 26 31 35 36 36 38 40 41 42 42 42 42 41 39 39 36 32
2 5 4 2 3 2 4 6 8 6 2 9 9 7 3 6 12 11 0 10 12 11 14 18 17 13 7 3 6 8 10 6 5 9 12 12 10 8 7 7 9 10 11 12 15 20 26 30 33 35 37 39 41 41 42 43 43 43 42 41 39 33 29
2 4 3 2 3 1 3 5 9 10 3 7 8 5 3 8 11 8 5 8 9 12 16 15 9 6 6 6 4 6 9 6 5 8 10 9 7 6 5 7 10 10 10 11 13 18 23 27 30 31 32 36 40 41 42 45 46 43 41 39 36 31 29
3 4 3 1 0 1 3 7 13 15 8 8 7 3 5 5 9 13 16 15 15 17 18 15 10 7 9 10 9 9 8 5 4 6 7 7 5 5 6 9 11 10 9 9 11 14 19 24 27 26 24 29 34 36 38 42 42 38 36 34 31 27 26
2 3 3 1 1 1 8 14 15 12 6 4 3 5 4 6 13 19 22 23 24 25 23 19 16 15 16 17 15 13 10 7 6 3 4 5 5 6 8 10 10 10 10 10 11 14 17 23 28 27 25 28 31 29 31 34 33 29 27 27 24 22 23
2 2 3 3 2 6 15 15 8 7 5 4 9 10 9 13 20 22 23 22 23 24 23 20 18 17 18 18 17 16 14 10 6 3 4 6 7 8 9 10 11 10 11 12 14 17 20 24 27 27 27 30 30 26 29 32 27 21 20 20 19 19 19
3 2 2 2 5 7 17 15 6 8 10 6 10 11 11 15 22 24 23 21 19 20 20 19 17 17 17 16 14 14 14 10 4 4 5 6 9 10 12 13 14 13 12 12 14 17 21 24 26 26 25 28 26 23 28 32 29 22 19 19 19 18 17
3 4 3 3 2 9 23 26 19 21 25 20 17 16 14 14 17 19 20 18 16 15 15 16 16 16 14 13 12 13 12 9 3 2 5 8 11 13 14 14 14 12 11 10 12 15 19 23 25 24 23 23 22 21 25 31 29 23 20 20 19 16 14
4 6 3 1 4 13 25 30 29 30 32 29 28 27 24 21 19 17 17 16 14 12 10 11 14 14 12 12 13 13 11 8 5 2 5 9 11 13 13 12 12 12 10 10 11 14 18 21 23 22 22 23 23 21 24 26 25 22 19 18 15 13 13
4 3 3 3 6 11 17 23 26 27 28 26 27 27 26 26 26 22 17 16 14 12 12 13 12 12 12 13 13 12 10 8 6 4 6 9 12 13 13 13 13 14 13 13 14 16 19 21 20 20 22 23 22 21 21 21 21 18 15 12 11 10 10
4 3 4 2 10 13 13 14 15 18 20 19 19 20 20 20 22 21 18 16 15 13 13 12 12 12 13 13 12 11 10 9 6 5 7 10 12 14 15 16 15 16 15 15 16 18 20 21 20 19 22 23 24 24 22 18 16 14 10 6 6 7 8
3 2 3 4 9 11 10 10 9 9 9 10 13 14 14 14 16 18 20 19 18 15 12 7 8 10 11 11 11 10 9 8 7 7 8 11 13 15 17 17 16 15 15 16 17 19 21 20 18 19 24 24 22 22 19 13 11 9 5 2 5 9 11
2 2 4 5 5 3 3 7 8 5 2 3 7 10 11 11 11 14 17 16 15 13 11 9 11 12 11 9 9 8 8 7 7 7 8 10 14 16 17 17 15 14 15 17 19 19 20 19 17 19 23 21 19 20 18 12 8 4 6 7 7 11 12
2 4 9 9 8 6 5 8 11 9 7 8 12 14 11 7 5 7 12 16 15 13 11 11 13 14 11 9 7 6 5 5 5 5 6 9 12 14 16 16 14 13 14 17 18 19 20 20 19 19 22 24 24 21 16 12 9 4 9 11 11 12 12
6 10 13 13 12 11 11 14 17 16 14 13 13 12 10 7 6 7 10 13 16 15 13 13 14 13 11 10 8 5 3 2 2 3 4 6 9 13 14 14 13 13 14 17 19 19 20 21 20 21 23 24 21 15 11 11 10 10 13 13 14 15 14
15 17 19 20 20 19 17 18 18 16 14 12 12 11 10 9 8 8 8 10 13 14 14 14 14 12 8 9 10 7 5 4 2 2 4 7 10 12 13 13 13 13 14 17 19 20 20 21 20 19 18 16 13 11 13 15 15 14 14 16 16 15 13
Wind_Direction
215 212 189 167 168 188 229 167 173 214 171 144 143 233 258 104 151 261 225 238 287 271 311 345 121 169 172 166 171 174 182 187 186 188 192 194 195 196 199 202 202 201 201 202 203 203 204 205 207 209 211 212 214 213 209 206 204 205 206 208 208 206 204
228 216 194 180 179 163 148 203 209 205 120 108 112 170 341 62 173 271 263 238 275 205 276 328 105 146 170 174 178 182 182 181 183 187 191 194 197 198 201 203 202 201 201 201 202 204 206 208 210 212 214 215 215 214 210 206 205 204 205 209 209 207 206
228 209 194 209 205 169 150 187 192 158 147 190 134 164 174 131 208 273 299 281 251 190 224 253 164 170 181 182 183 185 180 177 182 186 190 194 197 198 201 202 201 201 201 201 202 205 207 210 212 214 215 215 215 215 212 209 208 206 205 208 209 207 209
213 189 179 207 224 221 146 153 183 164 157 177 189 178 164 165 191 226 285 303 275 223 210 197 196 193 184 181 183 183 180 180 184 186 188 192 195 198 201 202 202 202 201 202 204 206 209 210 212 213 214 215 215 215 213 211 210 208 207 208 208 207 209
228 204 206 195 195 207 194 164 190 222 214 150 161 206 152 144 159 182 220 265 268 251 215 187 196 195 176 171 172 178 185 186 187 187 186 190 196 200 202 202 202 202 202 203 205 207 209 209 210 211 213 215 216 216 214 212 210 209 208 209 209 208 209
257 239 231 202 192 195 183 172 189 196 184 132 134 254 269 133 152 169 177 221 266 264 223 182 178 168 158 167 169 178 187 187 189 188 187 192 199 202 204 204 203 202 202 203 204 205 206 207 208 211 213 214 215 216 216 214 213 211 210 210 210 208 208
250 246 240 214 197 192 180 179 188 179 165 137 142 203 245 225 189 136 119 161 268 272 232 164 158 161 165 170 170 173 179 183 186 188 192 196 200 204 206 206 204 203 203 204 204 204 206 208 210 212 213 214 216 218 217 215 215 213 212 211 210 208 208
273 264 253 225 198 179 173 188 172 161 174 169 156 173 186 188 212 133 82 85 262 282 289 140 147 152 156 162 164 164 171 179 183 187 192 196 200 205 207 206 204 203 203 204 203 204 206 208 210 211 213 215 217 218 218 217 217 216 214 213 210 209 209
267 278 274 237 213 188 185 188 170 176 181 160 138 128 143 188 215 156 121 172 244 277 337 115 147 143 146 159 163 164 169 176 180 184 190 196 201 204 204 203 202 201 202 203 203 205 208 209 211 212 214 217 218 218 219 219 220 218 216 215 212 209 209
218 218 220 218 208 202 224 189 176 192 194 177 160 120 143 204 218 138 136 183 245 280 307 209 175 146 149 166 166 168 173 175 179 183 189 196 199 200 201 201 202 203 204 205 206 208 210 211 213 214 215 217 218 219 219 220 221 220 218 217 213 211 210
201 201 217 221 183 180 207 203 186 196 201 181 146 112 157 191 172 171 199 178 174 204 196 202 197 158 154 164 163 167 172 175 180 184 188 193 195 198 202 204 204 205 206 208 210 211 213 215 215 216 217 218 217 219 220 220 221 221 219 219 215 212 211
209 210 217 221 193 191 197 197 199 206 198 163 138 152 188 163 143 206 238 179 160 187 197 194 192 171 162 168 165 166 168 171 177 180 184 188 192 197 203 206 207 207 209 212 212 213 215 216 216 217 217 218 218 220 222 220 220 220 221 221 216 213 212
215 218 220 209 193 202 201 197 204 213 207 178 165 186 175 151 164 207 207 182 173 185 195 193 189 177 171 172 166 164 166 169 172 175 178 183 188 194 201 206 209 211 212 214 215 216 217 217 217 216 216 217 218 220 222 221 221 220 220 221 219 216 213
214 216 220 204 177 193 200 199 199 198 208 200 192 199 174 166 188 192 178 184 188 187 191 196 194 177 166 165 162 162 166 168 171 173 176 182 188 193 199 205 210 213 215 217 218 219 218 218 218 217 216 217 218 219 220 220 221 221 220 220 220 217 214
217 214 213 199 176 180 186 192 185 165 194 233 213 199 175 174 205 186 171 182 205 215 193 181 180 165 154 159 163 165 169 172 174 176 179 185 191 195 200 205 209 213 216 218 220 221 220 221 221 221 220 220 219 219 219 219 220 221 218 216 214 214 213
213 205 175 167 172 173 178 200 203 161 148 206 206 160 156 168 160 138 161 182 212 228 180 134 153 158 152 161 169 169 173 176 179 180 182 187 193 198 203 207 210 213 216 218 220 222 224 224 222 223 223 220 218 218 218 218 218 217 216 213 210 210 210
222 211 143 133 121 111 170 237 235 157 124 114 104 70 48 183 145 133 168 204 213 191 144 130 147 162 154 160 169 175 180 181 182 185 188 192 198 203 208 213 215 217 219 220 222 225 227 227 226 226 226 223 221 219 218 218 216 214 214 212 210 209 207
221 233 128 106 91 105 201 244 236 119 112 105 98 92 55 333 150 143 163 176 143 123 136 143 155 170 160 154 161 170 176 175 175 181 188 195 204 210 215 220 223 224 225 224 224 226 230 232 232 230 228 225 224 221 218 215 213 212 212 211 210 210 206
176 195 98 117 190 207 233 242 178 118 114 107 100 91 54 43 82 111 119 134 136 128 126 125 124 136 144 142 143 151 159 162 162 165 174 184 196 207 214 221 226 229 231 230 227 228 231 235 234 230 226 225 223 221 218 214 211 211 212 212 211 209 206
141 102 90 155 215 255 291 279 120 103 96 89 81 55 15 5 28 92 106 117 128 125 125 128 129 131 134 135 138 145 150 157 162 169 185 194 198 207 215 222 225 227 232 235 235 235 235 235 233 229 227 226 223 221 218 215 213 212 212 212 210 207 205
127 115 93 161 256 346 340 333 343 40 124 122 109 82 7 342 348 27 102 103 100 113 122 128 131 130 123 119 143 160 164 173 186 204 224 216 206 208 213 221 229 232 238 240 240 243 242 238 234 232 230 228 224 220 216 214 213 211 209 209 207 204 206
91 92 65 37 49 38 288 288 304 306 146 137 123 91 360 330 343 349 109 128 123 117 117 125 128 123 110 102 174 170 167 175 198 214 218 208 195 191 199 219 237 241 247 249 245 245 244 239 235 232 230 228 223 216 210 208 206 204 203 204 204 206 217
57 92 94 118 112 132 251 283 316 332 100 126 104 66 1 306 333 341 117 142 133 134 139 139 130 114 110 190 206 168 154 155 169 178 182 183 184 188 199 225 242 244 252 257 250 245 243 241 238 236 233 228 220 210 204 202 198 197 202 205 208 218 236
64 91 111 157 124 109 288 310 325 324 355 92 80 70 251 293 334 6 96 125 120 128 135 130 113 106 145 177 179 138 138 151 167 172 180 192 204 212 220 231 239 244 253 261 257 247 241 239 235 230 225 217 208 203 201 199 196 198 207 213 219 234 246
60 81 103 81 70 291 314 329 329 328 352 66 77 160 223 308 16 63 84 89 91 97 101 100 93 101 111 103 93 102 111 109 122 165 198 219 231 244 244 234 234 243 255 264 257 241 234 230 222 215 209 202 199 199 200 199 201 208 218 224 230 239 241
62 107 113 59 220 303 335 332 337 355 27 88 134 178 174 65 66 76 80 83 85 83 84 89 94 94 84 72 69 73 73 66 70 108 199 214 213 216 220 225 236 250 259 256 240 231 233 230 223 220 217 206 203 208 212 211 215 221 225 229 232 233 233
83 87 68 71 209 311 345 343 344 24 41 159 154 143 122 84 77 76 75 79 82 81 79 78 76 74 68 63 61 58 54 60 76 123 189 203 205 207 215 230 243 250 249 240 226 222 225 222 220 224 220 205 203 219 229 226 225 225 222 222 225 227 231
88 105 79 126 223 318 12 32 53 35 32 84 119 112 104 93 85 78 73 72 76 80 80 73 65 59 53 50 47 43 42 51 92 170 199 215 223 230 236 237 237 239 237 228 220 220 221 219 219 223 219 207 205 218 228 225 222 220 218 219 222 225 231
107 134 169 204 249 31 49 58 59 48 49 56 62 62 65 73 76 77 74 66 60 66 72 70 64 57 48 43 38 32 30 32 49 195 225 234 233 234 232 225 227 237 237 228 225 223 220 220 221 220 215 206 199 208 225 229 224 217 214 217 218 217 221
105 87 74 24 29 49 62 68 67 59 55 52 49 48 44 38 43 62 77 73 57 47 51 66 70 64 53 45 38 29 25 22 14 313 250 238 232 232 232 230 234 239 235 230 230 221 214 218 220 214 206 197 191 202 221 222 212 206 205 205 202 199 202
120 80 358 3 44 50 61 71 71 66 60 54 49 46 39 32 33 43 64 82 80 60 42 43 52 52 44 37 30 22 20 19 5 330 280 254 241 235 236 240 241 239 235 228 221 215 212 213 212 206 202 195 189 195 202 193 185 191 197 192 192 195 198
109 164 229 106 79 68 59 62 64 63 61 52 43 44 43 35 27 26 38 60 70 59 42 25 16 19 25 26 23 12 4 3 353 322 287 268 254 244 241 240 237 235 232 223 217 215 210 206 206 205 198 187 178 182 187 177 167 175 184 191 216 225 220
86 122 195 130 85 64 54 59 56 51 52 38 28 30 26 15 6 5 18 39 51 51 47 29 5 13 19 20 18 10 359 353 339 311 289 274 261 247 239 234 228 226 227 222 219 214 203 197 196 189 182 176 170 170 172 167 163 176 191 228 236 229 227
145 194 185 156 115 79 63 64 51 28 3 26 44 44 31 20 10 358 6 31 50 52 46 28 7 5 7 6 6 3 358 356 343 319 296 276 260 244 233 227 224 225 226 222 218 210 197 189 180 170 170 172 167 162 163 164 168 214 294 298 259 237 233
167 148 146 136 121 135 133 84 69 66 70 81 84 80 74 75 66 17 12 24 28 25 24 14 355 343 335 331 337 344 348 356 354 334 306 282 262 246 237 233 230 226 220 215 214 208 196 186 174 163 162 165 165 168 176 182 183 240 299 290 258 241 237
90 101 117 114 107 115 112 91 83 79 75 79 85 80 70 65 58 39 24 16 9 8 13 10 358 343 321 301 296 295 292 309 338 326 296 280 265 252 247 243 237 229 218 211 209 203 192 181 171 164 163 169 174 184 203 217 230 267 281 263 238 231 232
94 95 103 102 98 98 97 91 84 76 71 75 76 67 55 51 51 43 29 21 21 27 29 21 12 4 335 294 276 266 256 243 234 248 256 255 251 247 244 239 236 231 219 205 196 188 180 175 171 170 176 185 196 214 239 257 267 264 247 232 225 225 229